EA5CH Weather Reports


time (UTC)temp
C
wind
direction
speed
KPH
gust
KPH
rain 1hr
cm
rain 24hr
cm
rain mn
cm
humidity
%
barometer
mb
20260508090519 17 225 3.2 4.8 0.00 2.24 0.00 73 1015.3
20260508085519 17 225 1.6 4.8 0.00 2.24 0.00 73 1015.4
20260508084519 17 0.0 1.6 0.00 2.24 0.00 72 1015.3
20260508083519 18 225 1.6 3.2 0.00 2.24 0.00 70 1015.3
20260508082519 17 0.0 0.0 0.00 2.24 0.00 70 1015.0
20260508081519 18 0.0 1.6 0.00 2.24 0.00 69 1015.0
20260508080518 18 0.0 0.0 0.00 2.24 0.00 69 1015.0
20260508075519 18 0.0 0.0 0.00 2.24 0.00 72 1014.8
20260508074519 18 0.0 1.6 0.00 2.24 0.00 71 1014.6
20260508073519 17 0.0 0.0 0.00 2.24 0.00 72 1014.6
20260508072519 16 0.0 1.6 0.00 2.24 0.00 75 1014.7
20260508071519 16 0.0 1.6 0.00 2.24 0.00 81 1014.5
20260508070559 16 0.0 0.0 0.00 2.24 0.00 81 1014.3
20260508065519 15 0.0 0.0 0.00 2.24 0.00 81 1014.4
20260508064519 15 0.0 1.6 0.00 2.24 0.00 81 1014.3
20260508063538 15 0.0 1.6 0.00 2.24 0.00 82 1014.2
20260508062518 15 0.0 1.6 0.00 2.24 0.00 83 1014.0
20260508061519 14 0.0 1.6 0.00 2.24 0.00 84 1014.0
20260508060539 14 0.0 1.6 0.00 2.24 0.00 84 1014.0
20260508055519 14 0.0 0.0 0.00 2.24 0.00 84 1014.1
20260508054519 13 0.0 0.0 0.00 2.24 0.00 84 1014.0
20260508053519 13 0.0 0.0 0.00 2.24 0.00 85 1013.8
20260508052519 13 0.0 0.0 0.00 2.24 0.00 86 1013.6
20260508051518 13 0.0 1.6 0.00 2.24 0.00 86 1013.6
20260508050519 13 0.0 1.6 0.00 2.24 0.00 87 1013.4
20260508045519 13 0.0 3.2 0.00 2.24 0.00 87 1013.4
20260508044519 13 270 3.2 4.8 0.00 2.24 0.00 86 1013.4
20260508043519 13 248 4.8 8.0 0.00 2.24 0.00 87 1013.3
20260508042520 13 0.0 1.6 0.00 2.24 0.00 86 1013.0
20260508041519 13 0.0 1.6 0.00 2.24 0.00 85 1012.7
20260508040519 13 270 1.6 3.2 0.00 2.24 0.00 85 1012.8
20260508035519 13 270 1.6 3.2 0.00 2.24 0.00 86 1012.7
20260508034519 13 293 3.2 6.4 0.00 2.24 0.00 86 1012.8
20260508033519 13 270 1.6 4.8 0.00 2.24 0.00 87 1012.9
20260508032518 13 270 1.6 3.2 0.00 2.24 0.00 87 1013.1
20260508031519 13 0.0 1.6 0.00 2.24 0.00 87 1013.1
20260508030518 13 248 1.6 3.2 0.00 2.24 0.00 86 1013.2
20260508025518 13 248 1.6 4.8 0.00 2.24 0.00 86 1013.1
20260508024519 13 270 3.2 6.4 0.00 2.24 0.00 86 1013.1
20260508023619 13 270 6.4 14.5 0.00 2.24 0.00 86 1013.1
20260508022519 13 293 6.4 12.9 0.00 2.24 0.00 86 1013.1
20260508021539 13 293 6.4 11.3 0.00 2.24 0.00 86 1013.2
20260508020518 13 270 8.0 12.9 0.00 2.24 0.00 87 1013.2
20260508015539 13 270 6.4 9.7 0.00 2.24 0.00 88 1013.2
20260508014519 13 270 6.4 11.3 0.00 2.24 0.00 88 1013.4
20260508013519 13 293 6.4 9.7 0.00 2.24 0.00 88 1013.5
20260508012519 13 270 6.4 9.7 0.00 2.24 0.00 87 1013.7
20260508011519 13 270 4.8 8.0 0.00 2.24 0.00 86 1014.0
20260508010519 13 270 3.2 4.8 0.00 2.24 0.00 86 1014.1
20260508005519 14 270 3.2 6.4 0.00 2.24 0.00 86 1014.3
20260508004519 14 270 3.2 6.4 0.00 2.24 0.00 87 1014.4
20260508003519 13 270 3.2 9.7 0.00 2.24 0.00 88 1014.5
20260508002519 13 293 6.4 12.9 0.00 2.24 0.00 90 1014.5
20260508001519 13 270 6.4 11.3 0.00 2.24 0.00 92 1014.7
20260508000519 13 270 6.4 11.3 0.00 2.24 0.00 94 1014.7
20260507235519 13 270 6.4 11.3 0.00 2.24 2.24 95 1014.8
20260507234518 13 248 6.4 9.7 0.00 2.24 2.24 95 1014.9
20260507233519 13 248 3.2 6.4 0.00 2.24 2.24 96 1014.9
20260507232519 13 270 4.8 6.4 0.00 2.24 2.24 96 1015.0
20260507231519 13 270 3.2 6.4 0.00 2.24 2.24 96 1015.0
20260507230519 13 270 3.2 4.8 0.00 2.24 2.24 97 1015.0
20260507225519 13 248 1.6 3.2 0.00 2.24 2.24 97 1014.9
20260507224519 13 248 1.6 3.2 0.00 2.24 2.24 97 1014.9
20260507223519 14 0.0 0.0 0.00 2.24 2.24 97 1014.7
20260507222539 13 248 1.6 3.2 0.00 2.24 2.24 97 1014.4
20260507221519 13 0.0 1.6 0.00 2.24 2.24 97 1014.5
20260507220519 14 0.0 1.6 0.00 2.24 2.24 97 1014.6
20260507215519 14 248 3.2 4.8 0.00 2.24 2.24 97 1014.5
20260507214519 14 293 1.6 3.2 0.00 2.24 2.24 97 1014.6
20260507213519 14 0.0 1.6 0.00 2.24 2.24 97 1014.7
20260507212519 14 0.0 1.6 0.00 2.24 2.24 97 1014.8
20260507211519 14 293 1.6 4.8 0.00 2.24 2.24 97 1014.6
20260507210519 14 0.0 3.2 0.00 2.24 2.24 97 1014.7
20260507205518 14 248 1.6 4.8 0.00 2.24 2.24 97 1014.6
20260507204519 14 270 3.2 6.4 0.00 2.24 2.24 97 1014.6
20260507203519 14 293 6.4 9.7 0.00 2.24 2.24 97 1014.5
20260507202519 14 270 4.8 8.0 0.03 2.24 2.24 97 1014.4
20260507201519 14 45 1.6 3.2 0.03 2.24 2.24 97 1014.3
20260507200519 13 0.0 1.6 0.05 2.24 2.24 97 1014.2
20260507195519 14 90 1.6 3.2 0.05 2.24 2.24 97 1014.1
20260507194519 14 68 3.2 9.7 0.13 2.24 2.24 97 1014.1
20260507193539 15 0.0 4.8 0.18 2.24 2.24 97 1014.0
20260507192519 15 23 1.6 4.8 0.25 2.21 2.21 97 1013.9
20260507191519 15 0.0 1.6 0.36 2.21 2.21 97 1013.8
20260507190519 14 0.0 1.6 0.43 2.21 2.21 97 1013.6
20260507185519 14 0.0 3.2 0.53 2.18 2.18 97 1013.5
20260507184519 15 0.0 1.6 0.53 2.11 2.11 97 1013.6
20260507183519 15 0.0 0.0 0.66 2.06 2.06 97 1013.5
20260507182519 14 0.0 1.6 1.02 1.96 1.96 96 1013.5
20260507181519 14 0.0 1.6 1.80 1.85 1.85 96 1013.5
20260507180519 14 0.0 1.6 1.75 1.75 1.75 96 1013.5
20260507175539 14 0.0 1.6 1.65 1.65 1.65 96 1013.4
20260507174539 14 0.0 6.4 1.57 1.57 1.57 95 1013.3
20260507173519 14 23 3.2 14.5 1.40 1.40 1.40 94 1013.2
20260507172519 15 225 4.8 12.9 0.94 0.94 0.94 87 1013.1
20260507171519 15 248 6.4 14.5 0.05 0.05 0.05 81 1012.6
20260507170519 16 338 6.4 16.1 0.00 0.00 0.00 76 1012.4
20260507165519 17 23 3.2 12.9 0.00 0.00 0.00 77 1012.3
20260507164519 17 338 4.8 12.9 0.00 0.00 0.00 75 1012.1
20260507163539 18 270 8.0 16.1 0.00 0.00 0.00 71 1012.0
20260507162519 18 270 3.2 8.0 0.00 0.00 0.00 69 1012.1
20260507161519 18 293 3.2 6.4 0.00 0.00 0.00 67 1012.0
20260507160519 19 293 3.2 8.0 0.00 0.00 0.00 70 1011.9
20260507155559 20 45 1.6 6.4 0.00 0.00 0.00 77 1011.8
20260507154539 20 90 6.4 14.5 0.00 0.00 0.00 76 1011.4
20260507153539 20 113 8.0 17.7 0.00 0.00 0.00 76 1011.4
20260507152519 20 68 6.4 17.7 0.00 0.00 0.00 76 1011.4
20260507151519 20 135 8.0 25.7 0.00 0.00 0.00 76 1011.3
20260507150519 20 68 8.0 20.9 0.00 0.00 0.00 77 1011.2
20260507145519 20 90 8.0 19.3 0.00 0.00 0.00 77 1011.2
20260507144519 20 68 6.4 16.1 0.00 0.00 0.00 78 1011.1
20260507143519 20 90 4.8 22.5 0.00 0.00 0.00 79 1011.3
20260507142519 20 90 8.0 17.7 0.00 0.00 0.00 79 1011.4
20260507141539 20 113 9.7 24.1 0.00 0.00 0.00 78 1011.3
20260507140519 20 68 6.4 17.7 0.00 0.00 0.00 78 1011.3
20260507135519 20 68 8.0 22.5 0.00 0.00 0.00 78 1011.4
20260507134519 20 135 8.0 19.3 0.00 0.00 0.00 76 1011.5
20260507133519 20 225 6.4 12.9 0.00 0.00 0.00 75 1011.6
20260507132519 21 135 4.8 16.1 0.00 0.00 0.00 74 1011.6
20260507131519 21 90 8.0 19.3 0.00 0.00 0.00 71 1011.8
20260507130519 21 68 9.7 22.5 0.00 0.00 0.00 71 1012.1
20260507125519 21 135 9.7 25.7 0.00 0.00 0.00 70 1012.1
20260507124519 21 45 8.0 19.3 0.00 0.00 0.00 70 1012.2
20260507123519 21 68 8.0 16.1 0.00 0.00 0.00 71 1012.3
20260507122519 21 68 12.9 27.4 0.00 0.00 0.00 72 1012.4
20260507121519 21 90 9.7 22.5 0.00 0.00 0.00 70 1012.4
20260507120519 21 68 9.7 24.1 0.00 0.00 0.00 69 1012.5
20260507115519 21 90 6.4 16.1 0.00 0.00 0.00 71 1012.5
20260507114519 21 135 9.7 20.9 0.00 0.00 0.00 73 1012.7
20260507113519 21 113 6.4 19.3 0.00 0.00 0.00 71 1012.8
20260507112519 21 90 6.4 16.1 0.00 0.00 0.00 72 1012.8
20260507111519 21 90 6.4 17.7 0.00 0.00 0.00 71 1013.0
20260507110519 21 113 6.4 20.9 0.00 0.00 0.00 71 1013.1
20260507105519 20 113 8.0 19.3 0.00 0.00 0.00 72 1013.2
20260507104519 20 113 9.7 20.9 0.00 0.00 0.00 71 1013.2
20260507103517 20 68 8.0 17.7 0.00 0.00 0.00 70 1013.4
20260507102519 21 158 4.8 12.9 0.00 0.00 0.00 70 1013.2
20260507101517 20 68 8.0 19.3 0.00 0.00 0.00 70 1013.3
20260507100519 20 113 6.4 16.1 0.00 0.00 0.00 69 1013.3
20260507095519 20 113 4.8 12.9 0.00 0.00 0.00 70 1013.4
20260507094519 20 90 6.4 14.5 0.00 0.00 0.00 71 1013.5
20260507093519 20 113 4.8 14.5 0.00 0.00 0.00 70 1013.6
20260507092519 20 68 6.4 17.7 0.00 0.00 0.00 68 1013.6
20260507091519 20 113 4.8 11.3 0.00 0.00 0.00 68 1013.5